Weather History for PASA - October, 2011

Change the Weather History Date:

Friday, October 21, 2011

  Actual Average Record
Temperature  
Mean Temperature 34 °F -  
Max Temperature 35 °F 31 °F 39 °F (2012)
Min Temperature 33 °F 26 °F 17 °F (2008)
Degree Days  
Heating Degree Days 31    
Moisture  
Dew Point 25 °F    
Average Humidity 71    
Maximum Humidity 81    
Minimum Humidity 60    
Precipitation  
Precipitation 0.00 in - - ()
Sea Level Pressure  
Sea Level Pressure 29.67 in    
Wind  
Wind Speed 15 mph (NE)    
Max Wind Speed 18 mph    
Max Gust Speed 26 mph    
Visibility 10 miles    
Events      
Averages and records for this station are not official NWS values.
T = Trace of Precipitation, MM = Missing Value Source: NWS Daily Summary

Daily Weather History Graph

Daily Weather History Graph

Search for Another Location

Airport or City:

Trip Planner

Search our weather history database for the weather conditions in past years. The results will help you decide how hot, cold, wet, or windy it might be!

Date:

Astronomy

Oct. 21, 2011 Rise Set
Actual Time 10:28 AM AKDT 7:43 PM AKDT
Civil Twilight 9:39 AM AKDT 8:32 PM AKDT
Nautical Twilight 8:45 AM AKDT 9:26 PM AKDT
Astronomical Twilight 7:50 AM AKDT 10:20 PM AKDT
Moon 2:37 AM AKDT (10/21) 6:13 PM AKDT (10/21)
Length of Visible Light 10h 52m
Length of Day
9h 14m
Waning Crescent, 32% of the Moon is Illuminated
Oct 21
Waning Crescent
Oct 26
New
Nov 2
First Quarter
Nov 10
Full
Nov 18
Last Quarter

Hourly Weather History & Observations

Time (AKDT) Temp. Windchill Dew Point Humidity Pressure Visibility Wind Dir Wind Speed Gust Speed Precip Events Conditions
12:16 AM 35.6 °F 26.2 °F 30.2 °F 81% 29.68 in 10.0 mi NE 15.0 mph - N/A   Overcast
12:36 AM 35.6 °F 26.6 °F 28.4 °F 75% 29.68 in 10.0 mi ENE 13.8 mph 20.7 mph N/A   Overcast
12:56 AM 35.6 °F 26.2 °F 28.4 °F 75% 29.68 in 10.0 mi NNE 15.0 mph - N/A   Overcast
1:16 AM 35.6 °F 26.6 °F 30.2 °F 81% 29.68 in 10.0 mi NNE 13.8 mph 18.4 mph N/A   Overcast
1:36 AM 35.6 °F 26.2 °F 30.2 °F 81% 29.68 in 10.0 mi NE 15.0 mph - N/A   Overcast
1:56 AM 35.6 °F 26.6 °F 28.4 °F 75% 29.68 in 10.0 mi NE 13.8 mph - N/A   Overcast
2:16 AM 35.6 °F 27.5 °F 28.4 °F 75% 29.68 in 10.0 mi NE 11.5 mph - N/A   Overcast
2:36 AM 35.6 °F 27.5 °F 26.6 °F 70% 29.68 in 10.0 mi NE 11.5 mph - N/A   Overcast
2:56 AM 35.6 °F 26.6 °F 28.4 °F 75% 29.68 in 10.0 mi NE 13.8 mph - N/A   Overcast
3:16 AM 35.6 °F 26.2 °F 26.6 °F 70% 29.68 in 10.0 mi ENE 15.0 mph - N/A   Overcast
3:36 AM 35.6 °F 27.5 °F 28.4 °F 75% 29.68 in 10.0 mi NE 11.5 mph 18.4 mph N/A   Overcast
3:56 AM 33.8 °F 24.8 °F 26.6 °F 75% 29.68 in 10.0 mi ENE 12.7 mph - N/A   Mostly Cloudy
4:16 AM 33.8 °F 24.8 °F 28.4 °F 81% 29.68 in 10.0 mi ENE 12.7 mph - N/A   Overcast
4:36 AM 33.8 °F 24.8 °F 28.4 °F 81% 29.68 in 10.0 mi NE 12.7 mph - N/A   Overcast
4:56 AM 33.8 °F 24.8 °F 28.4 °F 81% 29.68 in 10.0 mi NE 12.7 mph - N/A   Overcast
5:16 AM 33.8 °F 24.3 °F 28.4 °F 81% 29.68 in 10.0 mi NE 13.8 mph - N/A   Overcast
5:36 AM 33.8 °F 23.9 °F 26.6 °F 75% 29.68 in 10.0 mi NE 15.0 mph - N/A   Mostly Cloudy
5:56 AM 33.8 °F 23.9 °F 26.6 °F 75% 29.67 in 10.0 mi NE 15.0 mph 20.7 mph N/A   Mostly Cloudy
6:16 AM 33.8 °F 23.9 °F 26.6 °F 75% 29.67 in 10.0 mi NE 15.0 mph - N/A   Mostly Cloudy
6:36 AM 33.8 °F 23.9 °F 26.6 °F 75% 29.67 in 10.0 mi NE 15.0 mph 19.6 mph N/A   Scattered Clouds
6:56 AM 33.8 °F 23.9 °F 24.8 °F 70% 29.67 in 10.0 mi NE 15.0 mph - N/A   Mostly Cloudy
7:16 AM 33.8 °F 23.5 °F 24.8 °F 70% 29.67 in 10.0 mi NE 16.1 mph 21.9 mph N/A   Scattered Clouds
7:36 AM 33.8 °F 23.2 °F 24.8 °F 70% 29.67 in 10.0 mi NE 17.3 mph 23.0 mph N/A   Scattered Clouds
7:56 AM 33.8 °F 23.5 °F 26.6 °F 75% 29.67 in 10.0 mi NE 16.1 mph - N/A   Mostly Cloudy
8:16 AM 33.8 °F 23.5 °F 24.8 °F 70% 29.67 in 10.0 mi NE 16.1 mph 24.2 mph N/A   Mostly Cloudy
8:36 AM 33.8 °F 23.5 °F 26.6 °F 75% 29.67 in 10.0 mi NE 16.1 mph 24.2 mph N/A   Mostly Cloudy
8:56 AM 33.8 °F 23.9 °F 26.6 °F 75% 29.67 in 10.0 mi NE 15.0 mph 23.0 mph N/A   Mostly Cloudy
9:16 AM 33.8 °F 24.3 °F 24.8 °F 70% 29.68 in 10.0 mi NE 13.8 mph - N/A   Overcast
9:36 AM 33.8 °F 23.2 °F 24.8 °F 70% 29.67 in 10.0 mi NE 17.3 mph 20.7 mph N/A   Mostly Cloudy
9:56 AM 33.8 °F 23.2 °F 24.8 °F 70% 29.67 in 10.0 mi NE 17.3 mph - N/A   Mostly Cloudy
10:16 AM 33.8 °F 23.2 °F 24.8 °F 70% 29.67 in 10.0 mi NE 17.3 mph - N/A   Mostly Cloudy
10:36 AM 33.8 °F 23.5 °F 24.8 °F 70% 29.67 in 10.0 mi NE 16.1 mph - N/A   Mostly Cloudy
10:56 AM 33.8 °F 23.9 °F 24.8 °F 70% 29.67 in 10.0 mi NE 15.0 mph - N/A   Mostly Cloudy
11:16 AM 33.8 °F 23.5 °F 23.0 °F 65% 29.68 in 10.0 mi NE 16.1 mph 20.7 mph N/A   Mostly Cloudy
11:36 AM 33.8 °F 23.5 °F 23.0 °F 65% 29.67 in 10.0 mi NE 16.1 mph 19.6 mph N/A   Mostly Cloudy
11:56 AM 33.8 °F 23.5 °F 24.8 °F 70% 29.68 in 10.0 mi NE 16.1 mph - N/A   Mostly Cloudy
12:16 PM 33.8 °F 23.2 °F 24.8 °F 70% 29.68 in 10.0 mi NE 17.3 mph - N/A   Overcast
12:36 PM 33.8 °F 23.9 °F 24.8 °F 70% 29.68 in 10.0 mi NE 15.0 mph 20.7 mph N/A   Overcast
12:56 PM 33.8 °F 24.8 °F 24.8 °F 70% 29.68 in 10.0 mi NE 12.7 mph 19.6 mph N/A   Overcast
1:16 PM 33.8 °F 23.5 °F 23.0 °F 65% 29.68 in 10.0 mi NE 16.1 mph 21.9 mph N/A   Overcast
1:36 PM 33.8 °F 23.9 °F 24.8 °F 70% 29.68 in 10.0 mi NE 15.0 mph 19.6 mph N/A   Mostly Cloudy
1:56 PM 33.8 °F 23.5 °F 23.0 °F 65% 29.68 in 10.0 mi NE 16.1 mph - N/A   Mostly Cloudy
2:16 PM 33.8 °F 23.9 °F 23.0 °F 65% 29.67 in 10.0 mi NE 15.0 mph - N/A   Overcast
2:36 PM 33.8 °F 23.9 °F 24.8 °F 70% 29.67 in 10.0 mi NE 15.0 mph 23.0 mph N/A   Overcast
3:16 PM 33.8 °F 23.9 °F 23.0 °F 65% 29.68 in 10.0 mi NE 15.0 mph 20.7 mph N/A   Overcast
3:36 PM 33.8 °F 23.2 °F 23.0 °F 65% 29.67 in 10.0 mi NE 17.3 mph - N/A   Overcast
3:56 PM 33.8 °F 23.2 °F 23.0 °F 65% 29.67 in 10.0 mi NNE 17.3 mph 21.9 mph N/A   Overcast
4:16 PM 33.8 °F 23.2 °F 23.0 °F 65% 29.67 in 10.0 mi NE 17.3 mph 24.2 mph N/A   Overcast
4:36 PM 33.8 °F 23.9 °F 21.2 °F 60% 29.66 in 10.0 mi NE 15.0 mph - N/A   Overcast
4:56 PM 33.8 °F 22.8 °F 21.2 °F 60% 29.66 in 10.0 mi NE 18.4 mph 25.3 mph N/A   Overcast
5:16 PM 33.8 °F 23.9 °F 21.2 °F 60% 29.66 in 10.0 mi NE 15.0 mph 26.5 mph N/A   Overcast
5:36 PM 33.8 °F 23.5 °F 24.8 °F 70% 29.66 in 10.0 mi NNE 16.1 mph 24.2 mph N/A   Overcast
5:56 PM 33.8 °F 22.8 °F 23.0 °F 65% 29.66 in 10.0 mi NNE 18.4 mph 24.2 mph N/A   Overcast
6:16 PM 33.8 °F 23.5 °F 23.0 °F 65% 29.66 in 10.0 mi NNE 16.1 mph 26.5 mph N/A   Overcast
6:36 PM 33.8 °F 23.2 °F 24.8 °F 70% 29.66 in 10.0 mi NNE 17.3 mph 23.0 mph N/A   Overcast
6:56 PM 33.8 °F 23.5 °F 24.8 °F 70% 29.65 in 10.0 mi NNE 16.1 mph 23.0 mph N/A   Overcast
7:16 PM 33.8 °F 22.8 °F 24.8 °F 70% 29.66 in 10.0 mi NNE 18.4 mph 23.0 mph N/A   Overcast
7:36 PM 33.8 °F 23.9 °F 24.8 °F 70% 29.66 in 10.0 mi NNE 15.0 mph 25.3 mph N/A   Overcast
7:56 PM 33.8 °F 22.8 °F 24.8 °F 70% 29.66 in 10.0 mi North 18.4 mph 24.2 mph N/A   Overcast
8:16 PM 33.8 °F 23.9 °F 24.8 °F 70% 29.66 in 10.0 mi NNE 15.0 mph - N/A   Overcast
8:36 PM 33.8 °F 23.2 °F 24.8 °F 70% 29.66 in 10.0 mi NNE 17.3 mph 21.9 mph N/A   Overcast
8:56 PM 33.8 °F 23.9 °F 28.4 °F 81% 29.66 in 10.0 mi North 15.0 mph 21.9 mph N/A   Overcast
9:16 PM 33.8 °F 23.5 °F 24.8 °F 70% 29.66 in 10.0 mi NNE 16.1 mph 19.6 mph N/A   Overcast
9:36 PM 33.8 °F 23.5 °F 24.8 °F 70% 29.66 in 10.0 mi NNE 16.1 mph 19.6 mph N/A   Overcast
9:56 PM 33.8 °F 23.9 °F 26.6 °F 75% 29.66 in 10.0 mi NE 15.0 mph - N/A   Overcast
10:16 PM 33.8 °F 23.9 °F 30.2 °F 87% 29.67 in 10.0 mi NNE 15.0 mph - N/A   Overcast
10:36 PM 33.8 °F 23.5 °F 26.6 °F 75% 29.66 in 10.0 mi NE 16.1 mph 19.6 mph N/A   Overcast
10:56 PM 33.8 °F 24.8 °F 23.0 °F 65% 29.67 in 10.0 mi NE 12.7 mph 18.4 mph N/A   Overcast
11:16 PM 35.6 °F 26.6 °F 23.0 °F 60% 29.67 in 10.0 mi NNE 13.8 mph - N/A   Overcast
11:36 PM 35.6 °F 25.2 °F 28.4 °F 75% 29.67 in 10.0 mi NNE 18.4 mph - N/A   Overcast
11:56 PM 33.8 °F 23.9 °F 28.4 °F 81% 29.67 in 10.0 mi NNE 15.0 mph 20.7 mph N/A   Mostly Cloudy